This is the latest recevied weather packets stored in our database for station/object K0APR. If no packets are shown the sender has not sent any weather packets the latest 10 day(s).
| Time | Temp. | Humidity | Pressure | Rain* | Wind** | Luminosity | Snow |
|---|---|---|---|---|---|---|---|
| 1777679654 | 11.11° C | 39% | 1019 hPa | 0 mm | - | 105 W/m² | - |
| 1777679349 | 11.11° C | 40% | 1019 hPa | 0 mm | - | 119 W/m² | - |
| 1777679046 | 11.11° C | 40% | 1019.3 hPa | 0 mm | - | 132 W/m² | - |
| 1777678745 | 11.67° C | 39% | 1019 hPa | 0 mm | - | 155 W/m² | - |
| 1777678442 | 11.67° C | 40% | 1019.3 hPa | 0 mm | - | 169 W/m² | - |
| 1777678137 | 11.67° C | 39% | 1019 hPa | 0 mm | - | 183 W/m² | - |
| 1777677835 | 11.11° C | 40% | 1019.3 hPa | 0 mm | - | 194 W/m² | - |
| 1777677532 | 11.11° C | 40% | 1019.3 hPa | 0 mm | - | 180 W/m² | - |
| 1777677230 | 11.67° C | 39% | 1019.3 hPa | 0 mm | - | 237 W/m² | - |
| 1777676928 | 11.11° C | 39% | 1019 hPa | 0 mm | - | 240 W/m² | - |
| 1777676627 | 11.11° C | 39% | 1019 hPa | 0 mm | - | 259 W/m² | - |
| 1777676324 | 11.67° C | 40% | 1019 hPa | 0 mm | - | 263 W/m² | - |
| 1777676022 | 11.11° C | 39% | 1019 hPa | 0 mm | - | 281 W/m² | - |
| 1777675717 | 11.67° C | 41% | 1019.3 hPa | 0 mm | - | 296 W/m² | - |
| 1777675415 | 11.67° C | 39% | 1019.3 hPa | 0 mm | - | 309 W/m² | - |
| 1777675111 | 11.67° C | 42% | 1019.3 hPa | 0 mm | - | 326 W/m² | - |
| 1777674807 | 11.11° C | 42% | 1019 hPa | 0 mm | - | 220 W/m² | - |
| 1777674504 | 10.56° C | 43% | 1019.3 hPa | 0 mm | - | 159 W/m² | - |
| 1777674202 | 11.11° C | 41% | 1019 hPa | 0 mm | - | 111 W/m² | - |
| 1777673898 | 11.67° C | 41% | 1019 hPa | 0 mm | - | 419 W/m² | - |
| 1777673595 | 11.67° C | 41% | 1019 hPa | 0 mm | - | 406 W/m² | - |
| 1777673293 | 11.67° C | 42% | 1019.3 hPa | 0 mm | - | 443 W/m² | - |
| 1777672989 | 11.67° C | 42% | 1019.3 hPa | 0 mm | - | 237 W/m² | - |
| 1777672686 | 12.22° C | 42% | 1019 hPa | 0 mm | - | 136 W/m² | - |
| 1777672381 | 11.11° C | 41% | 1019.3 hPa | 0 mm | - | 138 W/m² | - |
* Rain latest hour (hover to see other rain measurements)
** Current wind speed in m/s (hover to see current wind gust speed)